Weather History for Dalhart, TX

Change the Weather History Date:

Monday, October 15, 2012

  Actual Average Record
Temperature  
Mean Temperature 61 °F 56 °F  
Max Temperature 83 °F 71 °F 87 °F (1999)
Min Temperature 38 °F 41 °F 23 °F (1966)
Degree Days  
Heating Degree Days 4 9  
Month to date heating degree days 136 107  
Since 1 July heating degree days 162 170  
Cooling Degree Days 0 0  
Month to date cooling degree days 1 8  
Year to date cooling degree days 1643 1136  
Growing Degree Days 10 (Base 50)    
Moisture  
Dew Point 33 °F    
Average Humidity 47    
Maximum Humidity 79    
Minimum Humidity 14    
Precipitation  
Precipitation 0.00 in 0.05 in 1.23 in (1960)
Month to date precipitation 0.02 0.71  
Year to date precipitation 6.35 15.71  
Snow  
Snow 0.00 in 0.00 in 3.00 in (1970)
Month to date snowfall 0.0 0.1  
Since 1 July snowfall 0.0 0.1  
Since 1 September snowfall 0.0 0.1  
Snow Depth 0.00 in    
Sea Level Pressure  
Sea Level Pressure 29.96 in    
Wind  
Wind Speed 14 mph (SSW)    
Max Wind Speed 31 mph    
Max Gust Speed 39 mph    
Visibility 8 miles    
Events      
T = Trace of Precipitation, MM = Missing Value Source: NWS Daily Summary

Daily Weather History Graph

Daily Weather History Graph

Search for Another Location

Airport:

Trip Planner

Search our weather history database for the weather conditions in past years. The results will help you decide how hot, cold, wet, or windy it might be!

Date:

Astronomy

Oct. 15, 2012 Rise Set
Actual Time 7:57 AM CDT 7:13 PM CDT
Civil Twilight 7:31 AM CDT 7:39 PM CDT
Nautical Twilight 7:01 AM CDT 8:09 PM CDT
Astronomical Twilight 6:32 AM CDT 8:38 PM CDT
Moon 8:08 AM CDT (10/15) 7:17 PM CDT (10/15)
Length of Visible Light 12h 07m
Length of Day
11h 16m
New Moon, 0% of the Moon is Illuminated
Oct 15
New Moon
Oct 21
First Quarter
Oct 29
Full
Nov 6
Last Quarter
Nov 13
New

Hourly Weather History & Observations

Time (CDT) Temp. Windchill Dew Point Humidity Pressure Visibility Wind Dir Wind Speed Gust Speed Precip Events Conditions
12:53 AM 48.9 °F - 36.0 °F 61% 30.12 in 3.0 mi SSW 6.9 mph - N/A   Haze
1:53 AM 45.0 °F - 35.1 °F 68% 30.11 in 9.0 mi North - - N/A   Clear
2:53 AM 44.1 °F 39.5 °F 35.1 °F 71% 30.10 in 10.0 mi South 8.1 mph - N/A   Clear
3:53 AM 42.1 °F 37.1 °F 34.0 °F 73% 30.08 in 4.0 mi SSW 8.1 mph - N/A   Haze
4:53 AM 42.1 °F 38.4 °F 36.0 °F 79% 30.06 in 5.0 mi SSW 5.8 mph - N/A   Haze
5:53 AM 39.9 °F 35.1 °F 34.0 °F 79% 30.06 in 8.0 mi SSW 6.9 mph - N/A   Clear
6:53 AM 39.9 °F 35.1 °F 34.0 °F 79% 30.07 in 3.0 mi SW 6.9 mph - N/A   Haze
7:53 AM 39.0 °F 34.0 °F 34.0 °F 82% 30.07 in 3.0 mi SW 6.9 mph - N/A   Haze
8:02 AM 39.2 °F 34.2 °F 33.8 °F 81% 30.14 in 2.0 mi WSW 6.9 mph - N/A   Haze
8:35 AM 42.8 °F 39.3 °F 37.4 °F 81% 30.13 in 3.0 mi SW 5.8 mph - N/A   Haze
8:53 AM 46.0 °F 43.1 °F 37.9 °F 73% 30.06 in 7.0 mi SSW 5.8 mph - N/A   Clear
9:53 AM 57.0 °F - 39.0 °F 51% 30.05 in 10.0 mi SSW 10.4 mph - N/A   Clear
10:53 AM 66.9 °F - 37.0 °F 33% 30.01 in 10.0 mi SW 17.3 mph - N/A   Clear
11:53 AM 75.0 °F - 34.0 °F 22% 29.98 in 10.0 mi SW 19.6 mph - N/A   Clear
12:53 PM 78.1 °F - 32.0 °F 19% 29.94 in 10.0 mi SW 23.0 mph 29.9 mph N/A   Clear
1:53 PM 81.0 °F - 30.0 °F 16% 29.91 in 10.0 mi SW 24.2 mph 32.2 mph N/A   Clear
2:53 PM 82.0 °F - 28.0 °F 14% 29.86 in 10.0 mi SSW 23.0 mph 38.0 mph N/A   Clear
3:53 PM 82.0 °F - 30.0 °F 15% 29.83 in 10.0 mi SW 26.5 mph 31.1 mph N/A   Clear
4:53 PM 82.9 °F - 28.0 °F 14% 29.80 in 10.0 mi SSW 26.5 mph 34.5 mph N/A   Clear
5:53 PM 81.0 °F - 30.9 °F 16% 29.79 in 10.0 mi SSW 19.6 mph 32.2 mph N/A   Clear
6:53 PM 75.9 °F - 30.9 °F 19% 29.81 in 10.0 mi SSW 19.6 mph - N/A   Clear
7:53 PM 66.0 °F - 30.9 °F 27% 29.84 in 10.0 mi South 11.5 mph - N/A   Clear
8:53 PM 64.0 °F - 32.0 °F 30% 29.84 in 10.0 mi South 11.5 mph - N/A   Clear
9:53 PM 60.1 °F - 33.1 °F 36% 29.82 in 10.0 mi South 12.7 mph - N/A   Clear
10:53 PM 55.9 °F - 33.1 °F 42% 29.79 in 10.0 mi South 10.4 mph - N/A   Clear
11:53 PM 55.9 °F - 34.0 °F 44% 29.76 in 10.0 mi South 11.5 mph - N/A   Clear